Printer-friendly version

IAU Minor Planet Center

Minor Planet Center

MPEC 2008-W35 : 2008 WE14

The following Minor Planet Electronic Circular may be linked-to from your own Web pages, but must not otherwise be redistributed electronically.


Read MPEC 2008-W34 Read MPEC 2008-W36


M.P.E.C. 2008-W35                                Issued 2008 Nov. 21, 16:15 UT

     The Minor Planet Electronic Circulars contain information on unusual
         minor planets and routine data on comets.  They are published
   on behalf of Commission 20 of the International Astronomical Union by the
          Minor Planet Center, Smithsonian Astrophysical Observatory,
                          Cambridge, MA 02138, U.S.A.

             Prepared using the Tamkin Foundation Computer Network

                              MPC@CFA.HARVARD.EDU
          URL http://www.cfa.harvard.edu/iau/mpc.html  ISSN 1523-6714

                                   2008 WE14

Observations:
     K08W14E* C2008 11 21.19998 03 20 07.94 +16 44 33.7          20.1 V EW035G96
     K08W14E  C2008 11 21.20623 03 20 08.23 +16 46 11.5          20.0 V EW035G96
     K08W14E  C2008 11 21.21190 03 20 08.41 +16 47 39.9          19.9 V EW035G96
     K08W14E  C2008 11 21.21750 03 20 08.62 +16 49 07.7          20.0 V EW035G96
     K08W14E  C2008 11 21.32468 03 20 12.46 +17 16 39.8          20.0 V EW035G96
     K08W14E  C2008 11 21.32628 03 20 12.52 +17 17 04.7          20.2 V EW035G96
     K08W14E  C2008 11 21.36457 03 20 14.02 +17 26 47.2          20.1 V EW035G96
     K08W14E  C2008 11 21.36499 03 20 14.03 +17 26 53.7          20.0 V EW035G96
     K08W14E  C2008 11 21.36540 03 20 14.05 +17 26 59.9          20.4 V EW035G96
     K08W14E  C2008 11 21.45420 03 20 18.52 +17 49 15.4          20.6 V EW035G96
     K08W14E  C2008 11 21.45467 03 20 18.60 +17 49 22.9          20.4 V EW035G96
     K08W14E  C2008 11 21.45516 03 20 18.63 +17 49 30.2          20.3 V EW035G96
     K08W14E  C2008 11 21.45565 03 20 18.63 +17 49 37.1          20.4 V EW035G96

Observer details:
G96 Mt. Lemmon Survey.  Observer A. R. Gibbs.  Measurers E. C. Beshore,
    A. Boattini, G. J. Garradd, A. R. Gibbs, A. D. Grauer, R. E. Hill,
    R. A. Kowalski, S. M. Larson, R. H. McNaught.  1.5-m reflector + CCD.

Orbital elements:
2008 WE14                                                Earth MOID = 0.0546 AU
Epoch 2008 Nov. 30.0 TT = JDT 2454800.5                 MPC
M  19.10047              (2000.0)            P               Q
n   0.47239018     Peri.  324.10859     +0.90431652     -0.37308058
a   1.6328093      Node    59.07639     +0.42579932     +0.75413508
e   0.3881107      Incl.   13.99210     +0.03010932     +0.54045458
P   2.09           H   25.4           G   0.15           U   9
Residuals in seconds of arc
081121 G96  0.1-  0.3-    081121 G96  0.0   0.0     081121 G96  0.3+  0.2+
081121 G96  0.5+  0.0     081121 G96  0.1+  0.0     081121 G96  0.3+  0.2+
081121 G96  0.2-  0.1-    081121 G96  0.0   0.2+    081121 G96  0.1-  0.2-
081121 G96  0.2-  0.5+    081121 G96  0.0   0.1+
081121 G96  0.0   0.4-    081121 G96  0.4-  0.3-

Ephemeris:
2008 WE14                a,e,i = 1.63, 0.39, 14                  q = 0.9991
Date    TT    R. A. (2000) Decl.     Delta      r     Elong.  Phase     V
2008 11 20    03 18.35   +11 16.1    0.0628   1.050   169.8     9.6    20.1
2008 11 21    03 19.79   +15 52.8    0.0658   1.053   172.4     7.1    20.1
2008 11 22    03 21.17   +20 03.7    0.0693   1.056   173.0     6.5    20.2
2008 11 23    03 22.50   +23 49.5    0.0731   1.060   171.7     7.8    20.4
2008 11 24    03 23.77   +27 11.8    0.0773   1.063   169.5     9.8    20.6
2008 11 25    03 25.01   +30 12.5    0.0817   1.067   167.1    11.9    20.8
2008 11 26    03 26.21   +32 53.7    0.0864   1.071   164.9    13.9    21.0
2008 11 27    03 27.38   +35 17.4    0.0913   1.074   162.8    15.8    21.2
2008 11 28    03 28.53   +37 25.5    0.0963   1.078   160.8    17.5    21.4
2008 11 29    03 29.66   +39 20.0    0.102    1.082   159.1    19.0    21.6
2008 11 30    03 30.77   +41 02.3    0.107    1.086   157.5    20.4    21.7

Timothy B. Spahr             (C) Copyright 2008 MPC           M.P.E.C. 2008-W35

Read MPEC 2008-W34 Read MPEC 2008-W36


Our Web policy. Index to the CBAT/MPC/ICQ pages.


Valid HTML 4.01!